QPF
0.00 0.00 0.00 0.00 0.00 0.00 0.00 0.00 0.00 0.00 0.00 0.00 0.00 0.00 0.00 0.00 0.00 0.00 0.00 0.00 0.00 0.00 0.00 0.00 0.00 0.00 0.00 0.00 0.00 0.00 0.00 0.00 0.00 0.00 0.00 0.00 0.00 0.00 0.00 0.00 0.00 0.00 0.00
0.00 0.00 0.00 0.00 0.00 0.00 0.00 0.00 0.00 0.00 0.00 0.00 0.00 0.00 0.00 0.00 0.00 0.00 0.00 0.00 0.00 0.00 0.00 0.00 0.00 0.00 0.00 0.00 0.00 0.00 0.00 0.00 0.00 0.00 0.00 0.00 0.00 0.00 0.00 0.00 0.00 0.00 0.00
0.00 0.00 0.00 0.00 0.00 0.00 0.00 0.00 0.00 0.00 0.00 0.00 0.00 0.00 0.00 0.00 0.00 0.00 0.00 0.00 0.00 0.00 0.00 0.00 0.00 0.00 0.00 0.00 0.00 0.00 0.00 0.00 0.00 0.00 0.00 0.00 0.00 0.00 0.00 0.00 0.00 0.00 0.00
0.00 0.00 0.00 0.00 0.00 0.00 0.00 0.00 0.00 0.00 0.00 0.00 0.00 0.00 0.00 0.00 0.00 0.00 0.00 0.00 0.00 0.00 0.00 0.00 0.00 0.00 0.00 0.00 0.00 0.00 0.00 0.00 0.00 0.00 0.00 0.00 0.00 0.00 0.00 0.00 0.00 0.00 0.00
0.00 0.00 0.00 0.00 0.00 0.00 0.00 0.00 0.00 0.00 0.00 0.00 0.00 0.00 0.00 0.00 0.00 0.00 0.00 0.00 0.00 0.00 0.00 0.00 0.00 0.00 0.00 0.00 0.00 0.00 0.00 0.00 0.00 0.00 0.00 0.00 0.00 0.00 0.00 0.00 0.00 0.00 0.00
0.00 0.00 0.00 0.00 0.00 0.00 0.00 0.00 0.00 0.00 0.00 0.00 0.00 0.00 0.00 0.00 0.00 0.00 0.00 0.00 0.00 0.00 0.00 0.00 0.00 0.00 0.00 0.00 0.00 0.00 0.00 0.00 0.00 0.00 0.00 0.00 0.00 0.00 0.00 0.00 0.00 0.00 0.00
0.00 0.00 0.00 0.00 0.00 0.00 0.00 0.00 0.00 0.00 0.00 0.00 0.00 0.00 0.00 0.00 0.00 0.00 0.00 0.00 0.00 0.00 0.00 0.00 0.00 0.00 0.00 0.00 0.01 0.01 0.01 0.01 0.01 0.00 0.00 0.00 0.00 0.00 0.00 0.00 0.00 0.00 0.00
0.00 0.00 0.00 0.00 0.00 0.00 0.00 0.00 0.00 0.00 0.00 0.00 0.00 0.00 0.00 0.00 0.00 0.00 0.00 0.00 0.00 0.00 0.00 0.00 0.00 0.00 0.00 0.00 0.01 0.02 0.02 0.01 0.01 0.01 0.01 0.00 0.00 0.00 0.00 0.00 0.00 0.00 0.00
0.00 0.00 0.00 0.00 0.00 0.00 0.00 0.00 0.00 0.00 0.00 0.00 0.00 0.00 0.00 0.00 0.00 0.00 0.01 0.00 0.00 0.00 0.00 0.00 0.00 0.00 0.00 0.00 0.01 0.01 0.02 0.01 0.01 0.01 0.01 0.01 0.01 0.01 0.01 0.01 0.01 0.00 0.01
0.00 0.00 0.00 0.00 0.00 0.00 0.00 0.00 0.00 0.00 0.00 0.00 0.00 0.00 0.00 0.00 0.00 0.01 0.01 0.01 0.01 0.00 0.00 0.00 0.00 0.00 0.00 0.00 0.01 0.01 0.01 0.01 0.01 0.02 0.04 0.05 0.04 0.04 0.04 0.03 0.02 0.01 0.00
0.00 0.00 0.00 0.00 0.00 0.00 0.00 0.00 0.00 0.00 0.00 0.00 0.00 0.00 0.00 0.00 0.00 0.00 0.01 0.01 0.02 0.01 0.01 0.01 0.00 0.01 0.01 0.01 0.02 0.02 0.02 0.01 0.02 0.03 0.06 0.07 0.08 0.07 0.06 0.04 0.03 0.01 0.01
0.00 0.00 0.00 0.00 0.00 0.00 0.00 0.00 0.00 0.00 0.00 0.00 0.00 0.00 0.00 0.00 0.00 0.00 0.01 0.02 0.02 0.03 0.03 0.01 0.01 0.01 0.01 0.02 0.02 0.02 0.02 0.02 0.04 0.05 0.05 0.06 0.06 0.05 0.04 0.03 0.03 0.02 0.01
0.00 0.00 0.00 0.00 0.00 0.00 0.00 0.00 0.00 0.00 0.00 0.00 0.00 0.00 0.00 0.00 0.00 0.00 0.00 0.01 0.01 0.01 0.01 0.01 0.02 0.02 0.03 0.02 0.02 0.02 0.02 0.03 0.05 0.06 0.04 0.02 0.02 0.02 0.04 0.06 0.09 0.08 0.06
0.00 0.00 0.00 0.00 0.00 0.00 0.00 0.00 0.00 0.00 0.00 0.01 0.01 0.01 0.01 0.01 0.00 0.00 0.01 0.02 0.02 0.01 0.01 0.02 0.02 0.02 0.03 0.04 0.03 0.02 0.02 0.03 0.05 0.04 0.03 0.01 0.02 0.05 0.08 0.11 0.14 0.15 0.15
0.00 0.00 0.00 0.00 0.00 0.00 0.00 0.00 0.00 0.00 0.01 0.03 0.04 0.05 0.05 0.04 0.02 0.03 0.05 0.07 0.07 0.06 0.06 0.08 0.05 0.03 0.02 0.02 0.03 0.04 0.04 0.06 0.06 0.05 0.04 0.04 0.04 0.06 0.08 0.09 0.12 0.13 0.12
0.00 0.00 0.00 0.00 0.00 0.00 0.00 0.00 0.00 0.00 0.01 0.02 0.03 0.04 0.04 0.04 0.04 0.05 0.05 0.05 0.05 0.05 0.07 0.08 0.04 0.02 0.02 0.02 0.02 0.02 0.03 0.04 0.05 0.05 0.06 0.05 0.05 0.05 0.06 0.08 0.10 0.10 0.09
0.00 0.00 0.00 0.00 0.00 0.00 0.00 0.00 0.00 0.00 0.00 0.00 0.01 0.01 0.02 0.03 0.04 0.04 0.04 0.05 0.04 0.04 0.06 0.04 0.02 0.01 0.02 0.02 0.02 0.02 0.02 0.02 0.03 0.05 0.06 0.06 0.05 0.05 0.06 0.07 0.08 0.08 0.08
0.00 0.00 0.00 0.00 0.00 0.00 0.00 0.00 0.01 0.01 0.00 0.00 0.00 0.00 0.01 0.02 0.02 0.03 0.03 0.04 0.03 0.01 0.02 0.02 0.02 0.02 0.02 0.02 0.02 0.02 0.02 0.02 0.04 0.05 0.06 0.06 0.05 0.05 0.06 0.06 0.05 0.05 0.07
0.00 0.00 0.00 0.00 0.00 0.00 0.00 0.00 0.00 0.00 0.00 0.00 0.00 0.00 0.00 0.00 0.01 0.01 0.01 0.02 0.02 0.02 0.02 0.03 0.03 0.03 0.03 0.02 0.02 0.02 0.02 0.02 0.03 0.04 0.06 0.06 0.06 0.06 0.06 0.05 0.05 0.06 0.07
0.00 0.00 0.00 0.00 0.00 0.00 0.00 0.00 0.00 0.00 0.00 0.00 0.00 0.01 0.02 0.02 0.00 0.00 0.00 0.01 0.02 0.02 0.03 0.03 0.04 0.04 0.05 0.04 0.04 0.04 0.04 0.04 0.04 0.05 0.06 0.06 0.06 0.06 0.06 0.05 0.05 0.06 0.07
0.00 0.00 0.00 0.00 0.00 0.00 0.00 0.00 0.00 0.01 0.01 0.00 0.00 0.01 0.04 0.03 0.01 0.01 0.01 0.02 0.03 0.03 0.04 0.04 0.04 0.05 0.05 0.05 0.05 0.06 0.06 0.06 0.06 0.06 0.06 0.07 0.07 0.07 0.07 0.07 0.07 0.07 0.08
0.00 0.00 0.00 0.00 0.00 0.00 0.00 0.00 0.00 0.00 0.00 0.00 0.00 0.00 0.01 0.01 0.01 0.01 0.01 0.02 0.03 0.04 0.05 0.05 0.06 0.06 0.06 0.06 0.06 0.06 0.06 0.06 0.06 0.06 0.07 0.07 0.07 0.07 0.07 0.07 0.08 0.08 0.08
0.00 0.00 0.00 0.00 0.00 0.00 0.00 0.00 0.00 0.00 0.00 0.00 0.00 0.00 0.00 0.01 0.01 0.01 0.01 0.02 0.02 0.03 0.04 0.04 0.05 0.04 0.04 0.05 0.05 0.05 0.05 0.06 0.06 0.06 0.06 0.06 0.07 0.06 0.06 0.06 0.07 0.07 0.07
0.00 0.00 0.00 0.00 0.00 0.00 0.00 0.00 0.00 0.00 0.00 0.00 0.00 0.00 0.01 0.01 0.01 0.01 0.01 0.01 0.02 0.02 0.02 0.03 0.03 0.03 0.03 0.03 0.04 0.04 0.04 0.05 0.05 0.05 0.05 0.05 0.05 0.06 0.06 0.07 0.07 0.07 0.07
0.00 0.00 0.00 0.00 0.00 0.00 0.00 0.00 0.00 0.00 0.00 0.00 0.00 0.00 0.01 0.01 0.01 0.01 0.01 0.01 0.01 0.02 0.02 0.02 0.02 0.02 0.03 0.03 0.03 0.03 0.03 0.03 0.04 0.04 0.05 0.05 0.06 0.06 0.06 0.07 0.07 0.07 0.07
0.00 0.00 0.00 0.00 0.00 0.00 0.00 0.00 0.00 0.00 0.00 0.00 0.00 0.00 0.00 0.00 0.00 0.01 0.01 0.01 0.01 0.01 0.01 0.01 0.02 0.02 0.02 0.03 0.03 0.03 0.03 0.04 0.04 0.04 0.04 0.05 0.05 0.06 0.06 0.06 0.06 0.06 0.06
MSLP
1027.53 1027.55 1027.57 1027.59 1027.60 1027.60 1027.56 1027.48 1027.34 1027.14 1026.87 1026.53 1026.13 1025.69 1025.23 1024.75 1024.27 1023.81 1023.37 1022.95 1022.53 1022.12 1021.71 1021.28 1020.86 1020.42 1019.99 1019.58 1019.18 1018.80 1018.45 1018.13 1017.84 1017.59 1017.39 1017.23 1017.14 1017.12 1017.17 1017.31 1017.52 1017.80 1018.13
1027.49 1027.53 1027.55 1027.56 1027.56 1027.53 1027.46 1027.34 1027.16 1026.92 1026.61 1026.25 1025.83 1025.38 1024.91 1024.44 1023.98 1023.53 1023.10 1022.68 1022.25 1021.82 1021.36 1020.88 1020.39 1019.88 1019.38 1018.89 1018.43 1018.01 1017.64 1017.31 1017.03 1016.81 1016.63 1016.50 1016.44 1016.44 1016.51 1016.66 1016.88 1017.16 1017.48
1027.38 1027.44 1027.47 1027.49 1027.47 1027.40 1027.29 1027.12 1026.89 1026.60 1026.24 1025.83 1025.39 1024.91 1024.44 1023.97 1023.51 1023.07 1022.64 1022.22 1021.78 1021.32 1020.83 1020.30 1019.75 1019.18 1018.62 1018.08 1017.58 1017.13 1016.75 1016.42 1016.16 1015.95 1015.80 1015.70 1015.66 1015.69 1015.78 1015.93 1016.15 1016.43 1016.75
1027.20 1027.30 1027.37 1027.39 1027.36 1027.27 1027.13 1026.92 1026.64 1026.29 1025.89 1025.44 1024.95 1024.45 1023.95 1023.47 1023.00 1022.55 1022.10 1021.65 1021.19 1020.69 1020.16 1019.59 1018.99 1018.38 1017.77 1017.20 1016.67 1016.21 1015.81 1015.48 1015.23 1015.03 1014.89 1014.81 1014.78 1014.81 1014.91 1015.07 1015.30 1015.57 1015.89
1027.01 1027.16 1027.27 1027.31 1027.29 1027.20 1027.03 1026.80 1026.49 1026.11 1025.67 1025.19 1024.67 1024.14 1023.60 1023.08 1022.57 1022.07 1021.58 1021.08 1020.57 1020.02 1019.44 1018.83 1018.19 1017.54 1016.91 1016.31 1015.76 1015.28 1014.87 1014.53 1014.26 1014.05 1013.90 1013.80 1013.77 1013.79 1013.88 1014.04 1014.27 1014.55 1014.86
1026.86 1027.07 1027.21 1027.29 1027.29 1027.21 1027.05 1026.81 1026.49 1026.11 1025.65 1025.15 1024.60 1024.03 1023.45 1022.87 1022.30 1021.73 1021.16 1020.59 1020.00 1019.39 1018.75 1018.09 1017.41 1016.74 1016.08 1015.47 1014.90 1014.40 1013.96 1013.59 1013.27 1013.02 1012.83 1012.69 1012.61 1012.61 1012.68 1012.83 1013.05 1013.33 1013.66
1026.80 1027.06 1027.25 1027.36 1027.39 1027.33 1027.19 1026.97 1026.66 1026.28 1025.83 1025.31 1024.74 1024.13 1023.49 1022.84 1022.18 1021.51 1020.84 1020.17 1019.49 1018.80 1018.11 1017.40 1016.70 1016.00 1015.34 1014.71 1014.12 1013.59 1013.10 1012.67 1012.29 1011.96 1011.68 1011.47 1011.33 1011.27 1011.31 1011.44 1011.66 1011.96 1012.31
1026.88 1027.17 1027.39 1027.52 1027.57 1027.54 1027.42 1027.22 1026.93 1026.57 1026.12 1025.59 1024.99 1024.33 1023.63 1022.88 1022.12 1021.34 1020.56 1019.78 1019.01 1018.24 1017.48 1016.74 1016.02 1015.32 1014.65 1014.00 1013.39 1012.82 1012.28 1011.77 1011.29 1010.86 1010.48 1010.16 1009.94 1009.81 1009.80 1009.91 1010.13 1010.45 1010.84
1027.09 1027.40 1027.62 1027.76 1027.81 1027.77 1027.66 1027.47 1027.19 1026.82 1026.36 1025.82 1025.18 1024.46 1023.67 1022.83 1021.96 1021.07 1020.18 1019.29 1018.43 1017.60 1016.80 1016.04 1015.31 1014.61 1013.94 1013.29 1012.66 1012.04 1011.43 1010.83 1010.25 1009.70 1009.20 1008.78 1008.45 1008.25 1008.20 1008.29 1008.52 1008.87 1009.31
1027.39 1027.69 1027.89 1028.00 1028.02 1027.95 1027.81 1027.59 1027.29 1026.90 1026.41 1025.82 1025.12 1024.34 1023.46 1022.53 1021.55 1020.56 1019.56 1018.60 1017.67 1016.79 1015.97 1015.20 1014.48 1013.79 1013.13 1012.48 1011.83 1011.17 1010.49 1009.80 1009.12 1008.46 1007.85 1007.32 1006.91 1006.65 1006.56 1006.64 1006.89 1007.28 1007.79
1027.72 1027.98 1028.12 1028.16 1028.11 1027.98 1027.77 1027.49 1027.13 1026.68 1026.13 1025.47 1024.71 1023.84 1022.88 1021.86 1020.79 1019.71 1018.64 1017.62 1016.65 1015.75 1014.93 1014.16 1013.46 1012.79 1012.14 1011.49 1010.82 1010.12 1009.39 1008.63 1007.87 1007.12 1006.42 1005.82 1005.35 1005.05 1004.94 1005.03 1005.31 1005.75 1006.33
1027.99 1028.17 1028.23 1028.17 1028.02 1027.79 1027.49 1027.11 1026.66 1026.12 1025.48 1024.74 1023.89 1022.94 1021.90 1020.80 1019.67 1018.53 1017.42 1016.36 1015.38 1014.48 1013.66 1012.91 1012.23 1011.58 1010.94 1010.28 1009.60 1008.87 1008.10 1007.29 1006.47 1005.66 1004.92 1004.28 1003.79 1003.48 1003.38 1003.50 1003.82 1004.32 1004.96
1028.13 1028.21 1028.16 1027.99 1027.72 1027.38 1026.96 1026.47 1025.91 1025.26 1024.53 1023.69 1022.75 1021.72 1020.62 1019.46 1018.28 1017.12 1015.99 1014.92 1013.94 1013.05 1012.24 1011.51 1010.83 1010.18 1009.54 1008.87 1008.17 1007.41 1006.61 1005.77 1004.93 1004.11 1003.36 1002.73 1002.26 1001.98 1001.92 1002.08 1002.45 1003.01 1003.70
1028.07 1028.05 1027.89 1027.61 1027.24 1026.78 1026.25 1025.65 1024.98 1024.23 1023.39 1022.47 1021.45 1020.36 1019.21 1018.02 1016.83 1015.65 1014.52 1013.47 1012.50 1011.61 1010.81 1010.07 1009.38 1008.71 1008.03 1007.34 1006.60 1005.81 1004.99 1004.15 1003.31 1002.51 1001.79 1001.21 1000.79 1000.58 1000.58 1000.80 1001.23 1001.83 1002.58
1027.82 1027.70 1027.45 1027.09 1026.63 1026.09 1025.47 1024.79 1024.03 1023.19 1022.28 1021.29 1020.21 1019.08 1017.90 1016.70 1015.51 1014.35 1013.23 1012.19 1011.23 1010.34 1009.52 1008.75 1008.01 1007.28 1006.55 1005.79 1005.00 1004.18 1003.33 1002.49 1001.67 1000.91 1000.27 999.76 999.43 999.30 999.38 999.67 1000.15 1000.80 1001.57
1027.39 1027.20 1026.90 1026.49 1025.99 1025.41 1024.75 1024.02 1023.21 1022.33 1021.36 1020.33 1019.23 1018.08 1016.90 1015.71 1014.53 1013.39 1012.30 1011.27 1010.30 1009.39 1008.52 1007.69 1006.87 1006.06 1005.23 1004.38 1003.51 1002.63 1001.75 1000.91 1000.12 999.42 998.85 998.44 998.21 998.17 998.33 998.69 999.23 999.91 1000.69
1026.85 1026.62 1026.30 1025.90 1025.41 1024.83 1024.19 1023.45 1022.64 1021.74 1020.77 1019.72 1018.61 1017.47 1016.30 1015.14 1013.99 1012.87 1011.80 1010.78 1009.79 1008.84 1007.91 1006.99 1006.07 1005.13 1004.18 1003.22 1002.25 1001.30 1000.38 999.52 998.76 998.11 997.62 997.29 997.15 997.21 997.45 997.87 998.45 999.15 999.95
1026.24 1026.02 1025.73 1025.37 1024.94 1024.42 1023.82 1023.13 1022.34 1021.46 1020.50 1019.47 1018.38 1017.26 1016.12 1014.99 1013.87 1012.79 1011.73 1010.70 1009.70 1008.70 1007.69 1006.67 1005.63 1004.56 1003.48 1002.39 1001.31 1000.27 999.30 998.42 997.67 997.06 996.63 996.38 996.32 996.45 996.75 997.22 997.83 998.55 999.34
1025.62 1025.44 1025.21 1024.94 1024.59 1024.16 1023.64 1023.01 1022.28 1021.44 1020.51 1019.51 1018.44 1017.35 1016.25 1015.15 1014.08 1013.02 1011.99 1010.96 1009.93 1008.89 1007.81 1006.70 1005.54 1004.35 1003.14 1001.92 1000.74 999.61 998.58 997.67 996.91 996.33 995.93 995.74 995.73 995.92 996.27 996.77 997.40 998.12 998.91
1025.00 1024.88 1024.75 1024.57 1024.33 1024.00 1023.57 1023.01 1022.34 1021.55 1020.66 1019.69 1018.67 1017.61 1016.55 1015.50 1014.46 1013.44 1012.43 1011.41 1010.38 1009.30 1008.17 1006.98 1005.74 1004.44 1003.13 1001.81 1000.54 999.34 998.25 997.31 996.54 995.96 995.59 995.42 995.45 995.66 996.04 996.56 997.19 997.91 998.70
1024.39 1024.35 1024.31 1024.24 1024.10 1023.86 1023.51 1023.03 1022.41 1021.67 1020.82 1019.88 1018.90 1017.88 1016.86 1015.86 1014.87 1013.89 1012.91 1011.92 1010.89 1009.81 1008.66 1007.43 1006.13 1004.78 1003.40 1002.02 1000.69 999.44 998.31 997.35 996.56 995.98 995.61 995.46 995.50 995.73 996.11 996.63 997.26 997.97 998.74
1023.79 1023.83 1023.87 1023.88 1023.83 1023.67 1023.38 1022.95 1022.38 1021.68 1020.87 1019.97 1019.02 1018.05 1017.08 1016.13 1015.19 1014.27 1013.34 1012.39 1011.39 1010.33 1009.18 1007.95 1006.65 1005.28 1003.88 1002.48 1001.13 999.87 998.73 997.76 996.98 996.40 996.03 995.88 995.92 996.14 996.52 997.02 997.63 998.32 999.06
1023.19 1023.29 1023.40 1023.48 1023.48 1023.37 1023.13 1022.74 1022.20 1021.53 1020.76 1019.90 1019.00 1018.08 1017.17 1016.27 1015.40 1014.53 1013.67 1012.77 1011.82 1010.79 1009.69 1008.50 1007.22 1005.88 1004.51 1003.14 1001.82 1000.58 999.47 998.52 997.75 997.19 996.83 996.68 996.72 996.92 997.28 997.76 998.34 998.99 999.70
1022.59 1022.74 1022.90 1023.01 1023.04 1022.96 1022.74 1022.38 1021.87 1021.24 1020.51 1019.70 1018.86 1018.00 1017.15 1016.32 1015.51 1014.71 1013.90 1013.06 1012.17 1011.20 1010.15 1009.01 1007.80 1006.52 1005.21 1003.91 1002.66 1001.48 1000.43 999.54 998.82 998.28 997.95 997.81 997.84 998.03 998.36 998.81 999.34 999.95 1000.60
1022.03 1022.20 1022.37 1022.50 1022.54 1022.47 1022.26 1021.92 1021.44 1020.86 1020.18 1019.43 1018.66 1017.87 1017.10 1016.34 1015.59 1014.85 1014.10 1013.31 1012.47 1011.55 1010.56 1009.49 1008.34 1007.15 1005.93 1004.72 1003.57 1002.49 1001.53 1000.72 1000.07 999.59 999.29 999.17 999.21 999.38 999.69 1000.09 1000.58 1001.12 1001.71
1021.51 1021.69 1021.85 1021.97 1022.00 1021.93 1021.74 1021.42 1020.98 1020.44 1019.83 1019.16 1018.47 1017.76 1017.06 1016.37 1015.68 1014.99 1014.27 1013.52 1012.71 1011.84 1010.89 1009.88 1008.81 1007.71 1006.59 1005.49 1004.45 1003.50 1002.65 1001.94 1001.38 1000.98 1000.74 1000.64 1000.69 1000.86 1001.13 1001.49 1001.92 1002.40 1002.92
Thickness
5406 5403 5400 5397 5395 5392 5390 5388 5387 5387 5388 5389 5390 5392 5394 5396 5398 5401 5403 5407 5412 5418 5424 5428 5433 5436 5441 5445 5447 5450 5454 5458 5474 5491 5490 5494 5495 5499 5500 5501 5503 5503 5504
5385 5381 5377 5374 5372 5369 5366 5364 5363 5362 5363 5363 5365 5368 5370 5373 5374 5376 5379 5382 5386 5393 5400 5405 5411 5416 5421 5425 5428 5433 5436 5440 5448 5464 5470 5472 5478 5483 5485 5486 5489 5490 5491
5363 5358 5354 5351 5348 5344 5342 5340 5338 5338 5338 5339 5340 5342 5345 5347 5350 5352 5353 5358 5363 5368 5375 5381 5388 5392 5400 5404 5409 5415 5419 5423 5428 5438 5452 5455 5460 5463 5465 5469 5473 5474 5475
5340 5335 5330 5326 5322 5318 5315 5313 5311 5311 5311 5312 5314 5315 5318 5320 5322 5323 5325 5332 5338 5345 5352 5359 5366 5370 5377 5382 5388 5395 5400 5405 5411 5419 5431 5435 5439 5443 5447 5455 5456 5460 5461
5318 5312 5306 5301 5296 5292 5288 5286 5285 5284 5283 5284 5286 5288 5290 5291 5294 5293 5296 5302 5310 5321 5330 5337 5344 5349 5356 5360 5366 5373 5377 5384 5392 5400 5411 5416 5423 5426 5438 5445 5445 5445 5443
5296 5289 5283 5277 5272 5268 5264 5262 5260 5260 5259 5259 5259 5260 5263 5265 5264 5262 5263 5270 5281 5292 5304 5313 5319 5325 5333 5338 5344 5350 5355 5362 5371 5379 5391 5402 5416 5419 5420 5423 5425 5423 5430
5274 5267 5261 5256 5250 5245 5241 5239 5237 5236 5237 5237 5237 5236 5238 5240 5236 5235 5235 5238 5250 5261 5270 5280 5289 5299 5304 5309 5317 5324 5332 5341 5352 5361 5371 5388 5400 5404 5402 5405 5409 5415 5426
5255 5249 5242 5236 5230 5225 5221 5218 5215 5214 5213 5213 5213 5211 5212 5215 5210 5210 5211 5215 5224 5233 5238 5245 5253 5265 5272 5276 5283 5293 5306 5319 5332 5339 5353 5373 5377 5379 5383 5391 5395 5398 5402
5240 5233 5225 5217 5211 5206 5201 5198 5195 5193 5192 5189 5189 5189 5189 5190 5186 5187 5189 5196 5204 5210 5214 5218 5223 5232 5243 5244 5249 5262 5279 5296 5307 5315 5328 5344 5354 5359 5362 5365 5373 5378 5390
5224 5216 5208 5200 5194 5189 5184 5180 5176 5172 5172 5171 5171 5169 5167 5168 5167 5170 5173 5178 5185 5191 5195 5198 5201 5206 5213 5216 5220 5230 5247 5269 5278 5287 5299 5316 5329 5338 5344 5350 5359 5365 5379
5207 5199 5191 5184 5177 5172 5168 5163 5159 5156 5155 5154 5154 5154 5153 5154 5155 5158 5160 5163 5168 5175 5179 5182 5183 5184 5188 5192 5196 5205 5220 5236 5246 5258 5273 5288 5302 5315 5327 5336 5345 5352 5364
5192 5184 5176 5168 5162 5158 5153 5149 5145 5142 5142 5142 5144 5145 5145 5146 5147 5149 5152 5154 5157 5161 5165 5166 5167 5167 5169 5173 5176 5183 5194 5205 5217 5233 5250 5268 5284 5298 5311 5320 5327 5335 5345
5176 5168 5161 5156 5150 5145 5140 5138 5136 5133 5132 5134 5135 5138 5141 5142 5143 5145 5147 5148 5148 5149 5151 5152 5153 5153 5154 5156 5159 5163 5169 5179 5193 5211 5231 5252 5269 5281 5288 5295 5302 5310 5318
5161 5154 5150 5146 5141 5136 5131 5129 5127 5126 5126 5127 5129 5134 5139 5142 5142 5143 5144 5144 5145 5145 5144 5144 5142 5139 5137 5140 5142 5145 5150 5161 5175 5193 5213 5231 5246 5256 5265 5274 5280 5288 5295
5148 5143 5139 5135 5131 5127 5124 5121 5121 5123 5121 5125 5131 5134 5137 5141 5139 5140 5141 5144 5143 5142 5141 5140 5136 5130 5126 5125 5126 5130 5137 5147 5163 5183 5198 5212 5225 5237 5248 5256 5261 5266 5273
5136 5132 5128 5125 5121 5118 5117 5118 5119 5120 5122 5123 5126 5128 5130 5131 5134 5135 5135 5136 5135 5134 5132 5131 5126 5122 5121 5121 5122 5125 5130 5139 5153 5171 5186 5199 5210 5220 5230 5236 5241 5248 5256
5123 5120 5117 5114 5111 5109 5108 5108 5112 5118 5119 5119 5120 5120 5121 5124 5125 5126 5127 5126 5123 5120 5115 5112 5111 5111 5113 5116 5120 5123 5128 5136 5146 5159 5174 5186 5195 5204 5211 5218 5224 5230 5237
5113 5110 5107 5104 5102 5100 5100 5100 5101 5103 5107 5113 5113 5112 5113 5114 5115 5116 5115 5111 5105 5102 5097 5097 5098 5102 5107 5113 5118 5123 5128 5134 5142 5153 5165 5176 5184 5191 5197 5204 5209 5215 5219
5103 5101 5098 5095 5094 5093 5093 5094 5095 5095 5096 5100 5103 5105 5103 5104 5104 5101 5099 5092 5091 5091 5090 5090 5092 5097 5105 5113 5120 5125 5129 5134 5141 5149 5159 5168 5175 5181 5186 5191 5195 5197 5200
5092 5092 5090 5088 5086 5086 5086 5087 5087 5088 5089 5090 5092 5093 5096 5097 5092 5088 5085 5083 5082 5082 5082 5084 5088 5094 5102 5113 5122 5127 5131 5136 5142 5148 5155 5162 5167 5172 5175 5178 5180 5181 5183
5083 5081 5080 5078 5078 5078 5079 5080 5080 5080 5080 5081 5081 5082 5087 5081 5076 5075 5074 5074 5074 5075 5076 5078 5082 5088 5095 5104 5114 5123 5129 5135 5141 5145 5149 5153 5157 5160 5162 5164 5164 5165 5166
5073 5071 5070 5070 5071 5072 5073 5074 5073 5072 5072 5072 5072 5071 5072 5068 5065 5064 5064 5065 5066 5067 5069 5071 5076 5080 5086 5092 5100 5108 5116 5122 5128 5133 5137 5140 5143 5145 5146 5147 5147 5148 5148
5063 5062 5063 5064 5065 5066 5067 5066 5066 5065 5065 5064 5063 5062 5060 5058 5056 5056 5056 5057 5059 5062 5064 5067 5070 5075 5079 5085 5090 5095 5100 5106 5112 5117 5121 5124 5126 5128 5129 5130 5130 5130 5129
5055 5055 5056 5057 5059 5060 5060 5060 5060 5060 5058 5056 5054 5053 5051 5049 5048 5048 5048 5050 5052 5055 5058 5061 5064 5068 5072 5078 5082 5086 5091 5095 5099 5103 5106 5107 5108 5110 5111 5111 5112 5112 5113
5047 5048 5049 5051 5052 5053 5053 5054 5054 5053 5051 5050 5048 5047 5045 5043 5042 5042 5043 5044 5046 5049 5051 5054 5057 5062 5066 5071 5076 5079 5082 5085 5088 5091 5093 5094 5094 5095 5095 5095 5096 5096 5096
5040 5042 5044 5046 5047 5048 5048 5048 5048 5047 5046 5045 5043 5041 5040 5039 5038 5038 5039 5040 5041 5044 5046 5049 5051 5054 5059 5064 5069 5073 5076 5077 5078 5080 5081 5081 5082 5082 5082 5081 5081 5081 5080